Orbital Elements at Epoch 2459000.5 (2020-May-31.0) TDB
Reference: JPL 17 (heliocentric ecliptic J2000)
Element | Value | Uncertainty (1-sigma) | Units |
e | .01108250827012879 | 5.4567e-08 | |
a | 3.01809239014001 | 2.6122e-08 | au |
q | 2.984644356266271 | 1.6599e-07 | au |
i | 1.82591336586989 | 5.2206e-06 | deg |
node | 147.9955371057469 | 0.00015987 | deg |
peri | 233.4994891257948 | 0.00026076 | deg |
M | 27.7358125651081 | 0.00020353 | deg |
tp | 2458852.951222578025 (2020-Jan-04.45122258) | 0.0010832 | TDB |
period | 1915.125426638246 5.24 | 2.4864e-05 6.807e-08 | d yr |
n | .1879772442016674 | 2.4405e-09 | deg/d |
Q | 3.051540424013749 | 2.6412e-08 | au |
|
| | Orbit Determination Parameters
Additional Information
|